SOYUZ-MS 21

Last updated on Fri Sep 30 2022 00:02:06 GMT+0000 (Coordinated Universal Time)

1 52086U 22028A 22271.29875188 .00011405 00000+0 20504-3 0 9991 2 52086 51.6445 185.7292 0002377 302.6655 202.5977 15.50344723 30030
UTC large
Height (km)
Speed (km/s)
/
Latitude / Longitude
Inclination (degrees)
Orbital Period (minutes)
Azimuth
Elevation
Range (km)
Doppler Factor

Next 0 passes for location: London (51.5072 / 0.1276)

Sorry there are no passes over London.